{"data":{"norad_id":65712,"epoch":"2026-05-25T02:24:03.913920Z","epoch_age_seconds":56475,"freshness":"FRESH","line1":"1 65712U 25214A   26145.10004530  .00001910  00000+0  20648-3 0  9999","line2":"2 65712  49.9882  42.5745 0013102 158.9549 201.1935 14.92709233 36255","mean_motion":14.92709233,"eccentricity":0.0013102,"inclination_deg":49.9882,"raan_deg":42.5745,"arg_perigee_deg":158.9549,"mean_anomaly_deg":201.1935,"bstar":0.00020648,"rev_number":3625,"period_min":96.468888124041,"perigee_km":580.36318092682,"apogee_km":598.62115640039,"semimajor_km":6967.6291686636,"source":"CELESTRAK","updated_at":"2026-05-25T13:38:05.626045Z"}}